Regional Weather Roundup
Issued by NWS

Home | Current Version | Previous Version | Graphics & Text | Print | Product List | Glossary On
Versions: 1 2 3 4 5 6 7 8 9 10 11 12 13 14 15 16 17 18 19 20 21 22 23 24 25 26 27 28 29 30 31 32 33 34 35 36 37 38 39 40 41 42 43 44 45 46 47 48 49 50
000
ASUS43 KLOT 230106
RWRIL

ILLINOIS REGIONAL WEATHER ROUNDUP
NATIONAL WEATHER SERVICE CHICAGO/ROMEOVILLE IL
800 PM CDT WED OCT 22 2014

NOTE: "FAIR" INDICATES FEW OR NO CLOUDS BELOW 12,000 FEET WITH NO
SIGNIFICANT WEATHER AND/OR OBSTRUCTIONS TO VISIBILITY.

* THESE STATIONS ARE NOT UNDER NWS QUALITY CONTROL. THEY ALSO MAY NOT
  REPORT WEATHER SUCH AS PRECIPITATION OR FOG.

ILZ001-002-007-009-015-016-024-230200-
NORTHWEST ILLINOIS

CITY           SKY/WX    TMP DP  RH WIND       PRES   REMARKS
MOLINE         CLEAR     43  37  79 S3        30.23R
STERLING*      CLEAR     41  34  75 CALM      30.24R
SAVANNA*       CLEAR     46  35  67 SE5       30.23R
$$

ILZ003-004-008-010-011-017-018-230200-
NORTH CENTRAL ILLINOIS

CITY           SKY/WX    TMP DP  RH WIND       PRES   REMARKS
ROCKFORD       PTCLDY    47  36  65 SE5       30.26S
FREEPORT*      CLEAR     39  33  78 S3        30.26R
ROCHELLE*      CLEAR     40  35  82 E7        30.25S
DE KALB*       CLEAR     45  35  68 E8        30.26R
PERU*          CLEAR     51  36  55 SE7       30.25R
$$

ILZ005-006-012>014-019>023-230200-
NORTHEAST ILLINOIS

CITY           SKY/WX    TMP DP  RH WIND       PRES   REMARKS
CHICAGO-OHARE  CLEAR     45  37  73 E9        30.26F
CHICAGO-MIDWAY CLEAR     48  38  68 E6        30.27F
AURORA         CLEAR     45  35  68 E8        30.26R
LANSING*       CLEAR     43  37  79 CALM      30.28S
JOLIET*        CLEAR     44  35  69 E7        30.26F
WAUKEGAN       CLEAR     43  37  79 E5        30.26F
DUPAGE AIRPORT CLEAR     45  36  70 E6        30.26R
KANKAKEE*      CLEAR     44  38  78 NE5       30.27S
WHEELING       CLEAR     45  37  73 CALM      30.29S
MORRIS*        CLEAR     46  37  71 E5        30.25S
ROMEOVILLE*    CLEAR     44  36  73 E8        30.26F
NORTHERLY ISL    N/A     48  37  65 E5          N/A
$$

LMZ740>746-230200-
SOUTHERN LAKE MICHIGAN

STATION/POSITION SKY/WX   TEMP    WIND        PRES    VSBY  WAVE
                          AIR SEA DIR/SP/G                  HT/PER
                          (F)     (DEG/KT/KT) (MB)    (MI)  (FT/S)
SOUTHERN BUOY              48 54  100/  6/  8 1025.8F         1
WAUKEGAN HARBOR            48     120/  9/ 11   N/A
HARRISON CRIB              48      90/  8/ 10   N/A
BURNHAM HARBOR             48     100/  5/  8   N/A
CALUMET HARBOR             49      60/  5/  7 1023.9F
MICHIGAN CITY              47      60/  6/  7   N/A
$$

ILZ025>027-034>036-040-047-049-050-058-095>099-230200-
WEST-CENTRAL ILLINOIS

CITY           SKY/WX    TMP DP  RH WIND       PRES   REMARKS
QUINCY         CLEAR     52  40  63 SE5       30.21R
GALESBURG*     CLEAR     44  38  78 CALM      30.23R
MACOMB*        CLEAR     44  37  77 CALM      30.25R
JACKSONVILLE*  CLEAR     49  39  67 SE6       30.22R
PITTSFIELD*    CLEAR     52  41  65 SE3       30.22S
$$

ILZ028>032-037-038-041>044-048-051>054-059>061-230200-
CENTRAL ILLINOIS

CITY           SKY/WX    TMP DP  RH WIND       PRES   REMARKS
PONTIAC        CLEAR     41  34  75 E8        30.25S
BLOOMINGTON    CLEAR     47  36  65 SE7       30.25S
DECATUR        CLEAR     42  36  79 E6        30.25R
PEORIA         CLEAR     53  36  52 E5        30.24R
LACON*         CLEAR     48  34  58 SE3       30.24R
LINCOLN*       CLEAR     45  37  71 SE3       30.22F
SPRINGFIELD    CLEAR     47  40  76 E6        30.23S
TAYLORVILLE    CLEAR     48  37  66 E5        30.24R
$$

ILZ033-039-045-046-055>057-062-063-230200-
EAST-CENTRAL ILLINOIS

CITY           SKY/WX    TMP DP  RH WIND       PRES   REMARKS
CHAMPAIGN      CLEAR     43  36  76 MISG      30.25S
DANVILLE*      CLEAR     45  37  71 E3        30.23S
RANTOUL*       CLEAR     47  36  64 CALM      30.25S
MATTOON        CLEAR     49  39  68 CALM      30.24S
PARIS*         CLEAR     42  40  91 CALM      30.26S
$$

ILZ079-100>102-230200-
SOUTHWEST ILLINOIS

CITY           SKY/WX    TMP DP  RH WIND       PRES   REMARKS
ALTON          CLEAR     46  39  76 SE6       30.23R
BELLEVILLE     CLEAR     48  44  85 VRB1      30.22R
CAHOKIA*       CLEAR     49  41  74 CALM      30.22R
SPARTA*          N/A     47  43  84 CALM      30.23R FOG
$$

ILZ064>066-069>071-074>076-080>082-084>086-088>090-092>094-230200-
SOUTH-CENTRAL ILLINOIS

CITY           SKY/WX    TMP DP  RH WIND       PRES   REMARKS
CARBONDALE     CLEAR     47  40  76 E6        30.22S
CAIRO*         CLEAR     51  42  72 NE3       30.22S
EFFINGHAM*     CLEAR     46  38  76 CALM      30.24S
MARION         CLEAR     46  43  87 E3        30.23F
MT. VERNON     CLEAR     43  37  81 CALM      30.24S
CENTRALIA*     CLEAR     47  40  76 CALM      30.23S
SALEM*         CLEAR     48  44  88 CALM      30.24R
METROPOLIS*    CLEAR     49  44  85 CALM      30.22S
$$

ILZ067-068-072-073-078-083-087-091-230200-
SOUTHEAST ILLINOIS

CITY           SKY/WX    TMP DP  RH WIND       PRES   REMARKS
LAWRENCEVILLE  CLEAR     48  42  80 NW3       30.25S
FLORA*         CLEAR     45  41  85 CALM      30.24S
FAIRFIELD*     CLEAR     45  42  90 CALM      30.23S
HARRISBURG*    CLEAR     46  42  86 CALM      30.25S
ROBINSON*      CLEAR     45  41  85 CALM      30.26S
CARMI*         CLEAR     48  44  85 CALM      30.24S
$$

ABBREVIATIONS USED IN REMARKS
   TC - TEMPERATURE IN CELSIUS
  WCI - WIND CHILL INDEX
   HX - HEAT INDEX
  VSB - VISIBILITY
$$




USA.gov is the U.S. government's official web portal to all federal, state and local government web resources and services.